| time (UTC) | temp F | wind direction | speed knots | gust knots | rain 1hr in | rain 24hr in | rain mn in | humidity % | barometer mb |
| 20260504174822 | 48 | 309 | 4.3 | 12.2 | 0.00 | 0.03 | 0.00 | 57 | 1016.2 |
| 20260504174328 | 49 | 355 | 6.1 | 12.2 | 0.00 | 0.03 | 0.00 | 56 | 1016.3 |
| 20260504173817 | 48 | 336 | 6.1 | 13.0 | 0.00 | 0.03 | 0.00 | 57 | 1016.2 |
| 20260504172815 | 47 | 336 | 6.1 | 13.0 | 0.00 | 0.03 | 0.00 | 58 | 1016.3 |
| 20260504172323 | 47 | 314 | 7.8 | 14.8 | 0.00 | 0.03 | 0.00 | 58 | 1016.3 |
| 20260504171832 | 46 | 314 | 7.0 | 12.2 | 0.00 | 0.03 | 0.00 | 59 | 1016.3 |
| 20260504171321 | 46 | 32 | 5.2 | 12.2 | 0.00 | 0.03 | 0.00 | 59 | 1016.3 |
| 20260504170857 | 46 | 349 | 7.0 | 14.8 | 0.00 | 0.03 | 0.00 | 58 | 1016.3 |
| 20260504170345 | 46 | 1 | 8.7 | 14.8 | 0.00 | 0.03 | 0.00 | 57 | 1016.3 |
| 20260504160319 | 48 | 295 | 7.0 | 17.4 | 0.00 | 0.03 | 0.00 | 57 | 1015.9 |
| 20260504150832 | 48 | 300 | 6.1 | 13.0 | 0.00 | 0.03 | 0.00 | 56 | 1015.6 |
| 20260504150341 | 47 | 333 | 6.1 | 18.2 | 0.00 | 0.03 | 0.00 | 56 | 1015.6 |
| 20260504141324 | 46 | 354 | 4.3 | 8.7 | 0.00 | 0.03 | 0.00 | 57 | 1015.6 |
| 20260504140831 | 46 | 326 | 3.5 | 8.7 | 0.00 | 0.03 | 0.00 | 59 | 1015.6 |
| 20260504140320 | 46 | 13 | 2.6 | 8.7 | 0.00 | 0.03 | 0.00 | 60 | 1015.5 |
| 20260504130318 | 45 | 3 | 6.1 | 12.2 | 0.00 | 0.03 | 0.00 | 64 | 1014.0 |
| 20260504110318 | 38 | 294 | 1.7 | 2.6 | 0.00 | 0.03 | 0.00 | 90 | 1011.7 |
| 20260504100322 | 40 | 224 | 0.9 | 0.9 | 0.00 | 0.03 | 0.00 | 88 | 1010.8 |
| 20260504081824 | 42 | 222 | 0.0 | 0.0 | 0.00 | 0.03 | 0.00 | 86 | 1010.9 |
| 20260504081330 | 41 | 222 | 0.0 | 0.0 | 0.00 | 0.03 | 0.00 | 85 | 1010.9 |
| 20260504080821 | 42 | 222 | 0.0 | 0.0 | 0.00 | 0.03 | 0.00 | 84 | 1010.9 |
| 20260504080330 | 42 | 222 | 0.0 | 0.0 | 0.00 | 0.03 | 0.00 | 85 | 1011.0 |
| 20260504070345 | 43 | 212 | 0.9 | 1.7 | 0.00 | 0.03 | 0.00 | 80 | 1011.3 |
| 20260504050326 | 46 | 207 | 1.7 | 1.7 | 0.00 | 0.03 | 0.03 | 62 | 1011.6 |
| 20260504045836 | 46 | 199 | 0.0 | 2.6 | 0.00 | 0.03 | 0.03 | 61 | 1011.6 |
| 20260504045322 | 46 | 198 | 0.0 | 2.6 | 0.00 | 0.03 | 0.03 | 60 | 1011.7 |
| 20260504044831 | 46 | 154 | 0.9 | 1.7 | 0.00 | 0.03 | 0.03 | 60 | 1011.6 |
| 20260504044320 | 47 | 154 | 0.0 | 2.6 | 0.00 | 0.03 | 0.03 | 60 | 1011.7 |
| 20260504043846 | 47 | 153 | 1.7 | 3.5 | 0.00 | 0.03 | 0.03 | 62 | 1011.7 |
| 20260504043317 | 47 | 135 | 3.5 | 5.2 | 0.00 | 0.03 | 0.03 | 65 | 1011.7 |
| 20260504042829 | 48 | 124 | 1.7 | 4.3 | 0.00 | 0.03 | 0.03 | 63 | 1011.7 |
| 20260504042318 | 49 | 117 | 0.9 | 2.6 | 0.00 | 0.03 | 0.03 | 61 | 1011.8 |
| 20260504041831 | 50 | 113 | 1.7 | 2.6 | 0.00 | 0.03 | 0.03 | 54 | 1011.8 |
| 20260504041320 | 52 | 215 | 1.7 | 1.7 | 0.00 | 0.03 | 0.03 | 51 | 1011.8 |
| 20260504040829 | 52 | 217 | 0.9 | 1.7 | 0.00 | 0.03 | 0.03 | 42 | 1011.9 |
| 20260504040317 | 53 | 217 | 1.7 | 1.7 | 0.00 | 0.03 | 0.03 | 42 | 1011.9 |
| 20260504035828 | 52 | 215 | 1.7 | 3.5 | 0.00 | 0.03 | 0.03 | 43 | 1012.0 |
| 20260504035318 | 52 | 149 | 1.7 | 4.3 | 0.00 | 0.03 | 0.03 | 51 | 1012.1 |
| 20260504034827 | 54 | 139 | 1.7 | 4.3 | 0.00 | 0.03 | 0.03 | 52 | 1012.1 |
| 20260504034319 | 57 | 113 | 1.7 | 2.6 | 0.00 | 0.03 | 0.03 | 47 | 1012.1 |
| 20260504033823 | 59 | 132 | 0.9 | 3.5 | 0.00 | 0.03 | 0.03 | 30 | 1012.1 |
| 20260504033333 | 59 | 290 | 1.7 | 3.5 | 0.00 | 0.03 | 0.03 | 28 | 1012.0 |
| 20260504032820 | 60 | 286 | 1.7 | 4.3 | 0.00 | 0.03 | 0.03 | 28 | 1012.0 |
| 20260504032331 | 60 | 297 | 1.7 | 4.3 | 0.00 | 0.03 | 0.03 | 28 | 1011.9 |
| 20260504031819 | 60 | 323 | 1.7 | 4.3 | 0.00 | 0.03 | 0.03 | 29 | 1011.9 |
| 20260504031349 | 60 | 283 | 2.6 | 5.2 | 0.00 | 0.03 | 0.03 | 29 | 1011.9 |
| 20260504030818 | 60 | 278 | 2.6 | 5.2 | 0.00 | 0.03 | 0.03 | 29 | 1011.9 |
| 20260504030330 | 60 | 288 | 1.7 | 3.5 | 0.00 | 0.03 | 0.03 | 29 | 1011.9 |
| 20260504025821 | 60 | 293 | 1.7 | 3.5 | 0.00 | 0.03 | 0.03 | 29 | 1011.9 |
| 20260504025312 | 60 | 290 | 1.7 | 4.3 | 0.00 | 0.03 | 0.03 | 30 | 1011.8 |
| 20260504024842 | 60 | 280 | 1.7 | 4.3 | 0.00 | 0.03 | 0.03 | 30 | 1011.8 |
| 20260504024330 | 61 | 287 | 0.9 | 3.5 | 0.00 | 0.03 | 0.03 | 30 | 1011.8 |
| 20260504023840 | 61 | 283 | 1.7 | 3.5 | 0.00 | 0.03 | 0.03 | 30 | 1011.8 |
| 20260504023327 | 61 | 290 | 1.7 | 3.5 | 0.00 | 0.03 | 0.03 | 31 | 1011.8 |
| 20260504022817 | 61 | 281 | 1.7 | 3.5 | 0.00 | 0.03 | 0.03 | 31 | 1011.6 |
| 20260504022329 | 61 | 291 | 1.7 | 3.5 | 0.00 | 0.03 | 0.03 | 31 | 1011.6 |
| 20260504021819 | 61 | 290 | 0.9 | 4.3 | 0.00 | 0.03 | 0.03 | 30 | 1011.6 |
| 20260504021329 | 62 | 290 | 0.9 | 4.3 | 0.00 | 0.03 | 0.03 | 30 | 1011.6 |
| 20260504020821 | 62 | 288 | 1.7 | 3.5 | 0.00 | 0.03 | 0.03 | 29 | 1011.6 |
| 20260504020326 | 63 | 293 | 0.9 | 3.5 | 0.00 | 0.03 | 0.03 | 29 | 1011.6 |
| 20260504015835 | 63 | 287 | 0.9 | 2.6 | 0.00 | 0.03 | 0.03 | 29 | 1011.5 |
| 20260504015325 | 63 | 273 | 0.9 | 3.5 | 0.00 | 0.03 | 0.03 | 29 | 1011.6 |
| 20260504014815 | 64 | 280 | 0.9 | 2.6 | 0.00 | 0.03 | 0.03 | 29 | 1011.5 |
| 20260504014325 | 64 | 284 | 0.0 | 2.6 | 0.00 | 0.03 | 0.03 | 29 | 1011.5 |
| 20260504013815 | 65 | 284 | 1.7 | 3.5 | 0.00 | 0.03 | 0.03 | 28 | 1011.6 |
| 20260504013321 | 65 | 280 | 0.9 | 4.3 | 0.00 | 0.03 | 0.03 | 28 | 1011.6 |
| 20260504012827 | 66 | 300 | 0.9 | 4.3 | 0.00 | 0.03 | 0.03 | 27 | 1011.8 |
| 20260504012318 | 67 | 250 | 0.9 | 4.3 | 0.00 | 0.03 | 0.03 | 27 | 1011.9 |
| 20260504011830 | 67 | 295 | 2.6 | 8.7 | 0.00 | 0.03 | 0.03 | 26 | 1011.9 |
| 20260504011321 | 67 | 284 | 3.5 | 8.7 | 0.00 | 0.03 | 0.03 | 26 | 1012.0 |
| 20260504010828 | 67 | 271 | 3.5 | 8.7 | 0.00 | 0.03 | 0.03 | 26 | 1012.0 |
| 20260504010319 | 67 | 246 | 3.5 | 6.1 | 0.00 | 0.03 | 0.03 | 25 | 1012.0 |
| 20260504005832 | 67 | 356 | 1.7 | 7.8 | 0.00 | 0.03 | 0.03 | 26 | 1012.1 |
| 20260504005321 | 67 | 299 | 4.3 | 7.8 | 0.00 | 0.03 | 0.03 | 26 | 1012.2 |
| 20260504004831 | 67 | 326 | 3.5 | 7.8 | 0.00 | 0.03 | 0.03 | 25 | 1012.2 |
| 20260504004322 | 67 | 304 | 2.6 | 6.1 | 0.00 | 0.03 | 0.03 | 26 | 1012.3 |
| 20260504003831 | 67 | 287 | 3.5 | 6.1 | 0.00 | 0.03 | 0.03 | 25 | 1012.3 |
| 20260504003320 | 68 | 325 | 4.3 | 7.8 | 0.00 | 0.03 | 0.03 | 25 | 1012.3 |
| 20260504002828 | 68 | 307 | 3.5 | 13.0 | 0.00 | 0.03 | 0.03 | 25 | 1012.3 |
| 20260504002319 | 68 | 280 | 4.3 | 9.6 | 0.00 | 0.03 | 0.03 | 25 | 1012.3 |
| 20260504001823 | 68 | 285 | 2.6 | 9.6 | 0.00 | 0.03 | 0.03 | 26 | 1012.4 |
| 20260504001331 | 69 | 293 | 4.3 | 7.8 | 0.00 | 0.03 | 0.03 | 26 | 1012.4 |
| 20260504000818 | 69 | 232 | 2.6 | 8.7 | 0.00 | 0.03 | 0.03 | 27 | 1012.4 |
| 20260504000346 | 68 | 282 | 2.6 | 8.7 | 0.00 | 0.03 | 0.03 | 27 | 1012.5 |
| 20260503235832 | 68 | 263 | 4.3 | 7.8 | 0.00 | 0.03 | 0.03 | 27 | 1012.6 |
| 20260503235320 | 68 | 281 | 3.5 | 7.8 | 0.00 | 0.03 | 0.03 | 27 | 1012.7 |
| 20260503234811 | 68 | 330 | 3.5 | 9.6 | 0.00 | 0.03 | 0.03 | 26 | 1012.7 |
| 20260503234347 | 68 | 289 | 2.6 | 9.6 | 0.00 | 0.03 | 0.03 | 27 | 1012.7 |
| 20260503233836 | 68 | 289 | 5.2 | 9.6 | 0.00 | 0.03 | 0.03 | 27 | 1012.7 |
| 20260503233326 | 68 | 276 | 4.3 | 9.6 | 0.00 | 0.03 | 0.03 | 29 | 1012.7 |
| 20260503232818 | 67 | 233 | 1.7 | 3.5 | 0.00 | 0.03 | 0.03 | 31 | 1012.8 |
| 20260503232356 | 66 | 165 | 0.9 | 2.6 | 0.00 | 0.03 | 0.03 | 31 | 1012.8 |
| 20260503231826 | 66 | 219 | 0.9 | 1.7 | 0.00 | 0.03 | 0.03 | 30 | 1012.9 |
| 20260503231352 | 65 | 266 | 0.0 | 4.3 | 0.00 | 0.03 | 0.03 | 32 | 1013.0 |
| 20260503230820 | 65 | 274 | 1.7 | 6.1 | 0.00 | 0.03 | 0.03 | 32 | 1013.0 |
| 20260503230329 | 66 | 304 | 3.5 | 7.0 | 0.00 | 0.03 | 0.03 | 32 | 1013.0 |
| 20260503225816 | 66 | 280 | 1.7 | 6.1 | 0.00 | 0.03 | 0.03 | 31 | 1013.0 |
| 20260503225328 | 66 | 259 | 1.7 | 3.5 | 0.00 | 0.03 | 0.03 | 33 | 1013.1 |
| 20260503224819 | 67 | 319 | 1.7 | 5.2 | 0.00 | 0.03 | 0.03 | 33 | 1013.0 |
| 20260503224329 | 67 | 46 | 2.6 | 7.0 | 0.00 | 0.03 | 0.03 | 32 | 1013.0 |
| 20260503223819 | 67 | 293 | 3.5 | 7.0 | 0.00 | 0.03 | 0.03 | 33 | 1013.2 |
| 20260503223323 | 67 | 12 | 2.6 | 5.2 | 0.00 | 0.03 | 0.03 | 34 | 1013.2 |
| 20260503222834 | 67 | 125 | 1.7 | 5.2 | 0.00 | 0.03 | 0.03 | 35 | 1013.3 |
| 20260503222320 | 66 | 114 | 2.6 | 5.2 | 0.00 | 0.03 | 0.03 | 36 | 1013.4 |
| 20260503221855 | 66 | 77 | 2.6 | 5.2 | 0.00 | 0.03 | 0.03 | 37 | 1013.4 |
| 20260503221322 | 66 | 13 | 2.6 | 7.8 | 0.00 | 0.03 | 0.03 | 38 | 1013.5 |
| 20260503220830 | 66 | 100 | 4.3 | 7.0 | 0.00 | 0.03 | 0.03 | 38 | 1013.6 |
| 20260503220320 | 65 | 110 | 2.6 | 7.0 | 0.00 | 0.03 | 0.03 | 40 | 1013.8 |
| 20260503215831 | 65 | 93 | 4.3 | 7.0 | 0.00 | 0.03 | 0.03 | 39 | 1013.9 |
| 20260503215320 | 65 | 91 | 2.6 | 6.1 | 0.00 | 0.03 | 0.03 | 41 | 1013.9 |
| 20260503214831 | 64 | 66 | 4.3 | 6.1 | 0.00 | 0.03 | 0.03 | 42 | 1014.1 |
| 20260503214319 | 64 | 87 | 2.6 | 6.1 | 0.00 | 0.03 | 0.03 | 42 | 1014.1 |
| 20260503213829 | 64 | 39 | 2.6 | 5.2 | 0.00 | 0.03 | 0.03 | 44 | 1014.2 |
| 20260503213319 | 63 | 65 | 3.5 | 6.1 | 0.00 | 0.03 | 0.03 | 43 | 1014.4 |
| 20260503212831 | 63 | 341 | 4.3 | 7.8 | 0.00 | 0.03 | 0.03 | 42 | 1014.5 |
| 20260503212323 | 64 | 47 | 3.5 | 7.8 | 0.00 | 0.03 | 0.03 | 42 | 1014.6 |
| 20260503211827 | 63 | 70 | 4.3 | 7.0 | 0.00 | 0.03 | 0.03 | 43 | 1014.6 |
| 20260503211316 | 62 | 63 | 3.5 | 6.1 | 0.00 | 0.03 | 0.03 | 46 | 1014.8 |
| 20260503210824 | 62 | 333 | 2.6 | 7.8 | 0.00 | 0.03 | 0.03 | 44 | 1014.9 |
| 20260503210316 | 63 | 27 | 5.2 | 7.8 | 0.00 | 0.03 | 0.03 | 43 | 1015.0 |
| 20260503205826 | 65 | 77 | 4.3 | 7.0 | 0.00 | 0.03 | 0.03 | 41 | 1015.0 |
| 20260503205317 | 65 | 86 | 0.9 | 5.2 | 0.00 | 0.03 | 0.03 | 40 | 1015.1 |
| 20260503204821 | 64 | 193 | 3.5 | 5.2 | 0.00 | 0.03 | 0.03 | 41 | 1015.2 |
| 20260503204344 | 64 | 199 | 0.0 | 7.0 | 0.01 | 0.03 | 0.03 | 40 | 1015.2 |
| 20260503203830 | 63 | 230 | 4.3 | 7.8 | 0.01 | 0.03 | 0.03 | 41 | 1015.3 |
| 20260503203318 | 63 | 214 | 3.5 | 9.6 | 0.01 | 0.03 | 0.03 | 40 | 1015.3 |
| 20260503202830 | 64 | 249 | 3.5 | 7.0 | 0.01 | 0.03 | 0.03 | 42 | 1015.3 |
| 20260503202320 | 62 | 225 | 2.6 | 6.1 | 0.01 | 0.03 | 0.03 | 43 | 1015.4 |
| 20260503201830 | 62 | 262 | 3.5 | 8.7 | 0.02 | 0.03 | 0.03 | 45 | 1015.5 |
| 20260503201321 | 61 | 221 | 4.3 | 8.7 | 0.03 | 0.03 | 0.03 | 44 | 1015.5 |
| 20260503200833 | 60 | 214 | 4.3 | 10.4 | 0.03 | 0.03 | 0.03 | 48 | 1015.6 |
| 20260503200328 | 59 | 215 | 4.3 | 7.8 | 0.03 | 0.03 | 0.03 | 51 | 1015.8 |
| 20260503195836 | 57 | 210 | 2.6 | 7.0 | 0.03 | 0.03 | 0.03 | 55 | 1015.9 |
| 20260503195323 | 55 | 155 | 3.5 | 10.4 | 0.03 | 0.03 | 0.03 | 52 | 1016.0 |
| 20260503194828 | 55 | 229 | 8.7 | 10.4 | 0.03 | 0.03 | 0.03 | 52 | 1016.2 |
| 20260503194318 | 55 | 284 | 4.3 | 7.8 | 0.02 | 0.02 | 0.02 | 55 | 1016.2 |
| 20260503193829 | 55 | 256 | 5.2 | 8.7 | 0.02 | 0.02 | 0.02 | 58 | 1016.4 |
| 20260503193318 | 55 | 222 | 3.5 | 9.6 | 0.02 | 0.02 | 0.02 | 59 | 1016.5 |
| 20260503192830 | 56 | 226 | 1.7 | 21.7 | 0.02 | 0.02 | 0.02 | 54 | 1016.5 |